DELTA 1 DEB, 27577

Orbit data source: Space-Track

DELTA 1 DEB, 27577 is space debris in SSO originally from a launch on Thu, 12 Jun 1975 UTC launched from the Air Force Western Test Range (AFWTR). Debris objects in space refer to the collection of defunct objects orbiting the Earth. Examples of debris include non-operational satellites, rocket bodies, and fragments generated from explosions, collisions, or faulty payload assembly.

Loading next visibility...
Identifier
27577, 1975-052LE
Orbit
SSO
Country
Flag of USUS
Related business
Manufacturer
Unknown
Mission
Spacecraft
Bus & Motor
Unknown
Mass
Unknown
Launch date (UTC)
1975-06-12 (50 years ago)
Launch vehicle
Unknown
Launch site
Air Force Western Test Range (AFWTR)
Object type
Payload
Rocket body
Debris
Shape & HBR
Unknown shape, 0.1 m
Radar Cross Section
Small (<0.1 m²)

Expand to show TLE details & history
Last TLE update: 2 days ago

TLE from 2 days ago
0 DELTA 1 DEB
1 27577U 75052LE  25287.18009155  .00001050  00000-0  17539-2 0  9993
2 27577  99.1048 170.4701 0079404 292.5041 222.4883 13.47257321504427
Epoch: 2025-10-14T04:19Z
TLE epoch observation values (Epoch: 2025-10-14T04:19:19.909Z)
Latitude
25.30152°
Longitude
-93.01239°
Altitude
1,129.24 km
Speed
7.269 km/s
True Right ascension
23h 39m 10s
True Declination
25° 10' 32"
Sunlit
Object was in full shadow at epoch
Visualization orbit readout
Latitude
Unknown
Longitude
Unknown
Altitude
Unknown
Speed
Unknown
Apparent Right ascension
Unknown
Apparent Declination
Unknown
Sunlit
N/A
Visualization observer readout
Local Sidereal Time
11:52:06
Azimuth
Unknown
Elevation
Unknown
Doppler factor
Unknown
Orbital elements
Apogee altitude
1,138.859 km
Perigee altitude
1,020.424 km
Semi-major axis
7,457.779 km
Eccentricity
0.00794
Inclination
99.1048°
RAAN
170.4701°
Arg. of periapsis
292.5041°
True anomaly
221.87819°
Mean anomaly
222.4883°
Eccentric anomaly
222.1828°
Mean motion
3.36999 °/min
Orbital period
106.83 mins
BSTAR
0.0017539
Loading maneuver chart data...
Computing Atmospheric mass density...
Loading historical data...
Loading historical data...
Loading historical data...
Loading historical data...
Loading historical data...
Loading historical data...
Loading historical data...

Documentation

Showing up to 5 results
|